Weather History for Goshen, IN

Change the Weather History Date:

Monday, February 4, 2013

  Actual Average Record
Temperature  
Mean Temperature 21 °F -  
Max Temperature 25 °F 32 °F 54 °F (1962)
Min Temperature 17 °F 17 °F -9 °F (1985)
Degree Days  
Heating Degree Days 44    
Moisture  
Dew Point 17 °F    
Average Humidity 84    
Maximum Humidity 93    
Minimum Humidity 73    
Precipitation  
Precipitation 0.14 in - - ()
Sea Level Pressure  
Sea Level Pressure 29.93 in    
Wind  
Wind Speed 7 mph (ESE)    
Max Wind Speed 12 mph    
Max Gust Speed -    
Visibility 4 miles    
Events Fog , Snow    
Averages and records for this station are not official NWS values.
T = Trace of Precipitation, MM = Missing Value Source: NWS Daily Summary

Daily Weather History Graph

Daily Weather History Graph

Search for Another Location

Airport:

Trip Planner

Search our weather history database for the weather conditions in past years. The results will help you decide how hot, cold, wet, or windy it might be!

Date:

Astronomy

Feb. 04, 2013 Rise Set
Actual Time 7:51 AM EST 6:03 PM EST
Civil Twilight 7:22 AM EST 6:32 PM EST
Nautical Twilight 6:49 AM EST 7:05 PM EST
Astronomical Twilight 6:16 AM EST 7:37 PM EST
Moon 2:27 AM EST (2/4) 12:25 PM EST (2/4)
Length of Visible Light 11h 10m
Length of Day
10h 11m
Last Quarter, 37% of the Moon is Illuminated
Feb 4
Last Quarter
Feb 10
New
Feb 17
First Quarter
Feb 25
Full
Mar 4
Last Quarter

Hourly Weather History & Observations

Time (EST) Temp. Windchill Dew Point Humidity Pressure Visibility Wind Dir Wind Speed Gust Speed Precip Events Conditions
12:08 AM 17.6 °F 5.0 °F 10.4 °F 73% 30.03 in 9.0 mi WSW 11.5 mph - N/A   Overcast
12:53 AM 19.0 °F 7.5 °F 12.0 °F 74% 30.06 in 9.0 mi WSW 10.4 mph - N/A   Overcast
1:04 AM 19.4 °F 8.6 °F 12.2 °F 74% 30.02 in 10.0 mi WSW 9.2 mph - N/A   Overcast
1:53 AM 19.0 °F 8.2 °F 14.0 °F 81% 30.06 in 2.5 mi WSW 9.2 mph - 0.00 in Snow Light Snow
2:00 AM 19.4 °F 8.6 °F 14.0 °F 80% 30.02 in 3.0 mi WSW 9.2 mph - 0.00 in Snow Light Snow
2:53 AM 19.9 °F 9.3 °F 15.1 °F 81% 30.05 in 2.0 mi WSW 9.2 mph - 0.00 in Snow Light Snow
3:35 AM 19.4 °F 11.5 °F 15.8 °F 86% 30.00 in 1.5 mi SSW 5.8 mph - 0.00 in Snow Light Snow
3:53 AM 19.0 °F 11.1 °F 15.1 °F 85% 30.04 in 2.0 mi SW 5.8 mph - 0.00 in Snow Light Snow
4:00 AM 19.4 °F 11.5 °F 15.8 °F 86% 29.99 in 1.8 mi SSW 5.8 mph - 0.00 in Snow Light Snow
4:10 AM 19.4 °F 11.5 °F 15.8 °F 86% 29.98 in 2.0 mi SSW 5.8 mph - 0.00 in Snow Light Snow
5:53 AM 19.9 °F 12.1 °F 16.0 °F 85% 29.99 in 1.5 mi South 5.8 mph - 0.02 in Snow Light Snow
6:31 AM 19.4 °F 10.4 °F 15.8 °F 86% 29.94 in 1.0 mi South 6.9 mph - 0.02 in Snow Light Snow
6:53 AM 19.9 °F 12.1 °F 17.1 °F 89% 29.97 in 1.0 mi SSE 5.8 mph - 0.03 in Snow Light Snow
7:43 AM 19.4 °F 12.8 °F 17.6 °F 93% 29.93 in 0.8 mi SE 4.6 mph - 0.03 in Snow Light Snow
7:53 AM 19.9 °F 13.4 °F 17.1 °F 89% 29.97 in 0.8 mi SE 4.6 mph - 0.04 in Snow Light Snow
8:02 AM 19.4 °F 12.8 °F 17.6 °F 93% 29.93 in 0.5 mi ESE 4.6 mph - 0.01 in Fog , Snow Snow
8:36 AM 19.4 °F 12.8 °F 17.6 °F 93% 29.93 in 0.5 mi East 4.6 mph - 0.02 in Fog , Snow Snow
8:45 AM 19.4 °F 14.3 °F 17.6 °F 93% 29.94 in 0.8 mi East 3.5 mph - 0.03 in Snow Light Snow
8:53 AM 19.9 °F 14.9 °F 17.1 °F 89% 29.98 in 0.8 mi ESE 3.5 mph - 0.03 in Snow Light Snow
9:05 AM 21.2 °F 14.9 °F 17.6 °F 86% 29.94 in 0.5 mi East 4.6 mph - 0.00 in Fog , Snow Snow
9:53 AM 21.0 °F 11.4 °F 17.1 °F 85% 29.95 in 0.5 mi East 8.1 mph - 0.01 in Fog , Snow Snow
10:02 AM 21.2 °F 11.7 °F 17.6 °F 86% 29.90 in 1.0 mi East 8.1 mph - 0.00 in Snow Light Snow
10:18 AM 21.2 °F 10.1 °F 17.6 °F 86% 29.89 in 2.5 mi ESE 10.4 mph - 0.00 in Snow Light Snow
10:48 AM 23.0 °F 12.4 °F 17.6 °F 80% 29.89 in 1.2 mi East 10.4 mph - 0.00 in Snow Light Snow
10:53 AM 23.0 °F 11.7 °F 18.0 °F 81% 29.93 in 1.2 mi ESE 11.5 mph - 0.00 in Snow Light Snow
11:07 AM 23.0 °F 12.4 °F 17.6 °F 80% 29.89 in 0.5 mi ESE 10.4 mph - 0.01 in Snow Snow
11:22 AM 24.8 °F 15.3 °F 19.4 °F 80% 29.88 in 1.0 mi East 9.2 mph - 0.01 in Snow Light Snow
11:32 AM 24.8 °F 16.1 °F 19.4 °F 80% 29.89 in 2.0 mi East 8.1 mph - 0.01 in Snow Light Snow
11:43 AM 23.0 °F 13.9 °F 19.4 °F 86% 29.89 in 4.0 mi East 8.1 mph - 0.01 in Snow Light Snow
11:53 AM 23.0 °F 13.9 °F 19.0 °F 85% 29.92 in 6.0 mi East 8.1 mph - 0.01 in   Overcast
12:53 PM 24.1 °F 16.0 °F 19.0 °F 81% 29.88 in 2.5 mi ESE 6.9 mph - 0.00 in Snow Light Snow
1:04 PM 24.8 °F 19.1 °F 19.4 °F 80% 29.85 in 5.0 mi ESE 4.6 mph - 0.00 in   Haze
1:53 PM 25.0 °F 16.3 °F 19.0 °F 78% 29.87 in 10.0 mi East 8.1 mph - 0.00 in   Overcast
2:09 PM 24.8 °F 17.9 °F 19.4 °F 80% 29.83 in 10.0 mi East 5.8 mph - N/A   Overcast
2:53 PM 25.0 °F 18.1 °F 19.0 °F 78% 29.87 in 7.0 mi ENE 5.8 mph - N/A   Overcast
3:53 PM 25.0 °F 19.3 °F 19.0 °F 78% 29.88 in 7.0 mi ENE 4.6 mph - N/A   Overcast
4:53 PM 25.0 °F 18.1 °F 19.9 °F 81% 29.88 in 6.0 mi NE 5.8 mph - N/A   Haze
5:15 PM 24.8 °F 17.9 °F 19.4 °F 80% 29.83 in 6.0 mi NE 5.8 mph - N/A   Overcast
5:53 PM 24.1 °F 18.2 °F 19.9 °F 84% 29.87 in 6.0 mi NE 4.6 mph - N/A   Overcast
7:46 PM 21.2 °F 13.6 °F 17.6 °F 86% 29.88 in 7.0 mi North 5.8 mph - N/A   Mostly Cloudy
7:53 PM 21.9 °F 15.7 °F 18.0 °F 85% 29.93 in 7.0 mi North 4.6 mph - N/A   Scattered Clouds
8:19 PM 19.4 °F 12.8 °F 17.6 °F 93% 29.90 in 5.0 mi North 4.6 mph - N/A   Mostly Cloudy
8:46 PM 21.2 °F - 17.6 °F 86% 29.90 in 5.0 mi Calm Calm - N/A   Overcast
8:53 PM 19.9 °F - 17.1 °F 89% 29.94 in 5.0 mi Calm Calm - N/A   Overcast
9:03 PM 21.2 °F - 17.6 °F 86% 29.91 in 4.0 mi Calm Calm - N/A   Overcast
9:53 PM 21.0 °F - 19.0 °F 92% 29.94 in 4.0 mi Calm Calm - N/A   Overcast
10:53 PM 21.9 °F 14.5 °F 18.0 °F 85% 29.96 in 5.0 mi NW 5.8 mph - N/A   Overcast
11:42 PM 21.2 °F 12.6 °F 17.6 °F 86% 29.91 in 5.0 mi NNE 6.9 mph - N/A   Overcast
11:53 PM 21.9 °F 15.7 °F 18.0 °F 85% 29.94 in 5.0 mi NNE 4.6 mph - N/A   Mostly Cloudy